Location: Newark
(11.2914°S, 14.4718°E)
Time: 23:19:33
(UTC+00:00)

S-56A Canister/Altair - All Passes

Search period start: 19 September 2019 00:00
Search period end: 29 September 2019 00:00
Orbit: 633 x 2499 km, 38.9° (Epoch: 17 September)

Date Brightness Start Highest point End Pass type
(mag) Time Alt. Az. Time Alt. Az. Time Alt. Az.
19 Sep - 04:24:57 10° SSW 04:32:46 30° SE 04:43:20 10° E visible
19 Sep - 06:27:47 10° SW 06:38:41 90° NNW 06:53:33 10° NE daylight
19 Sep - 08:34:30 10° W 08:45:30 32° NW 08:58:03 10° NNE daylight
19 Sep - 19:30:11 10° NNW 19:35:07 36° NE 19:39:15 10° ESE visible
19 Sep - 21:35:20 10° W 21:38:47 21° SW 21:42:14 10° SSE night (unlit)
20 Sep - 03:52:44 10° SSW 03:59:36 25° SE 04:08:41 10° E visible
20 Sep - 05:55:04 10° SW 06:05:18 81° SE 06:19:44 10° NE daylight
20 Sep - 08:00:58 10° WSW 08:11:53 36° NW 08:24:59 10° NNE daylight
20 Sep - 18:57:33 10° NNW 19:02:30 29° NE 19:06:33 10° E visible
20 Sep - 21:02:11 10° W 21:06:10 26° SW 21:09:58 10° SSE night (unlit)
21 Sep - 03:20:41 10° S 03:26:28 20° SE 03:33:54 10° ESE visible
21 Sep - 05:22:28 10° SW 05:32:00 72° SE 05:45:49 10° ENE daylight
21 Sep - 07:27:38 10° WSW 07:38:20 41° NW 07:51:46 10° NNE daylight
21 Sep - 09:46:05 10° NW 09:46:18 10° NW 09:46:32 10° NW daylight
21 Sep - 18:24:53 10° NNW 18:29:49 24° NE 18:33:47 10° E visible
21 Sep - 20:29:02 10° WNW 20:33:36 35° SW 20:37:41 10° SSE visible
22 Sep - 02:48:51 10° S 02:53:24 16° SSE 02:58:58 10° ESE visible
22 Sep - 04:49:56 10° SW 04:58:48 62° SE 05:11:49 10° ENE daylight
22 Sep - 06:54:29 10° WSW 07:04:50 46° NW 07:18:26 10° NNE daylight
22 Sep - 09:07:40 10° WNW 09:12:35 12° NW 09:17:44 10° NNW daylight
22 Sep - 17:52:14 10° N 17:57:04 21° NE 18:00:57 10° E visible
22 Sep - 19:55:55 10° WNW 20:01:04 46° SW 20:05:24 10° SE visible
23 Sep - 02:17:28 10° S 02:20:20 12° SSE 02:23:36 10° SE visible
23 Sep - 04:17:32 10° SW 04:25:41 53° SE 04:37:44 10° ENE visible
23 Sep - 06:21:29 10° WSW 06:31:24 51° NW 06:44:59 10° NNE daylight
23 Sep - 08:32:27 10° WNW 08:38:54 15° NW 08:45:55 10° N daylight
23 Sep - 17:19:35 10° N 17:24:15 18° NE 17:28:02 10° ENE visible
23 Sep - 19:22:46 10° WNW 19:28:32 62° SW 19:33:04 10° SE visible
24 Sep - 03:45:11 10° SSW 03:52:39 44° SE 04:03:34 10° ENE visible
24 Sep - 05:48:37 10° WSW 05:58:02 57° NW 06:11:28 10° NE daylight
24 Sep - 07:57:58 10° WNW 08:05:16 17° NW 08:13:30 10° N daylight
24 Sep - 16:46:57 10° N 16:51:21 16° NNE 16:54:59 10° ENE daylight
24 Sep - 18:49:37 10° NW 18:56:00 81° SW 19:00:43 10° SE visible
25 Sep - 03:12:58 10° SSW 03:19:41 36° SE 03:29:21 10° ENE visible
25 Sep - 05:15:52 10° WSW 05:24:45 65° NW 05:37:52 10° NE daylight
25 Sep - 07:23:57 10° WNW 07:31:41 20° NW 07:40:47 10° N daylight
25 Sep - 16:14:24 10° N 16:18:24 14° NNE 16:21:46 10° ENE daylight
25 Sep - 18:16:26 10° NW 18:23:24 81° NE 18:28:21 10° SE visible
25 Sep - 20:25:14 10° WSW 20:27:08 12° SW 20:28:57 10° S visible
26 Sep - 02:40:49 10° SSW 02:46:48 29° SE 02:55:05 10° E visible
26 Sep - 04:43:13 10° WSW 04:51:34 73° NW 05:04:12 10° NE daylight
26 Sep - 06:50:16 10° W 06:58:10 22° NW 07:07:51 10° N daylight
26 Sep - 15:41:58 10° N 15:45:21 13° NNE 15:48:18 10° NE daylight
26 Sep - 17:43:14 10° NW 17:50:45 66° NE 17:55:56 10° ESE visible
26 Sep - 19:51:07 10° WSW 19:54:27 16° SW 19:57:25 10° S visible
27 Sep - 02:08:49 10° SSW 02:13:56 23° SE 02:20:44 10° E visible
27 Sep - 04:10:41 10° SW 04:18:28 83° NW 04:30:29 10° NE visible
27 Sep - 06:16:50 10° W 06:24:43 25° NW 06:34:47 10° NNE daylight
27 Sep - 15:09:50 10° NNE 15:12:13 11° NNE 15:14:25 10° NE daylight
27 Sep - 17:10:01 10° NW 17:18:01 54° NE 17:23:28 10° ESE visible
27 Sep - 19:17:17 10° W 19:21:49 22° SW 19:25:34 10° SSE visible
28 Sep - 01:36:58 10° S 01:41:07 18° SE 01:46:17 10° ESE visible
28 Sep - 03:38:13 10° SW 03:45:28 85° SE 03:56:44 10° NE visible
28 Sep - 05:43:37 10° W 05:51:21 28° NW 06:01:36 10° NNE daylight
28 Sep - 16:36:46 10° NNW 16:45:12 46° NE 16:50:56 10° ESE daylight
28 Sep - 18:43:33 10° W 18:49:12 28° SW 18:53:34 10° SSE visible
